Location: Unspecified
(0.0000°N, 0.0000°E)
Time: 21:36:08
(UTC+00:00)

Vanguard 1 - Pass Details

Date: 21 June 2025
Orbit: 649 x 3822 km, 34.2° (Epoch: 12 July)

Event Time Altitude Azimuth Distance (km) Brightness Sun altitude
Rises 20:52:52 0° 259° (W) 6,576 14.8 -38.5°
Reaches altitude 10° 21:04:50 10° 218° (SW) 4,296 13.3 -41.1°
Maximum altitude 21:05:14 10° 216° (SW) 4,245 13.3 -41.1°
Drops below altitude 10° 21:05:39 10° 214° (SW) 4,199 13.3 -41.2°
Enters shadow 21:07:11 10° 206° (SSW) 4,059 13.1 -41.6°
